Content
SEND FEEDBACK

Daily
Averages
Monthly
Summary
United States of America

MANGILAO, GUAM


Home > North America > United States > Guam
Elevation: 60 feet     Latitude: 13 27N     Longitude: 144 49E

WEATHER
 
SELECT A DAY
Number of Records: 342,166;   Date Range: 1/1/95 - 8/12/14
 
SHARE

PRINT THIS DATA

[ ← Previous Day ]
WEATHER ALMANAC - JANUARY 13, 2013
[ Next Day → ]
[ °C ]   °F
Weather ElementAverageHighLow
Temperature78.7 °F84.2 °F (1:05 pm)73.4 °F (4:25 am)
Dewpoint71.1 °F73.6 °F (1:55 pm)67.1 °F (8:55 am)
Humidity77.9 %90 % (4:55 am)63 % (10:55 am)
Barometer29.84 in29.90 in (8:09 am)29.80 in (2:42 pm)
Wind Speed18.2 mph24.2 mph (1:57 pm)
Wind Gust32.2 mph (1:11 am)
Weather ElementAverage
Visibility9.6 mi
Wind DirectionENE (60.7 °)

Weather ElementTotal
Precipitation0.07 in
Cooling Degree Days13.8 (Base 65)
Growing Degree Days28.8 (Base 50)
Averaged from 107 records on January 13, 2013
WEATHER CONDITIONS BREAKOUT
WIND DIRECTION BREAKOUT
WEATHER BY HOUR - JANUARY 13, 2013
[ °C ]   °F
Local TimeTemperatureDewpointHumidityBarometerVisibilityWind DirectionWind SpeedGust SpeedPrecipitationEventsConditions
12:34 AM77.0 °F71.6 °F83 %29.88 in10.0 miENE (60°)19.6 mph24.2 mphMostly Cloudy
12:44 AM77.0 °F71.6 °F83 %29.88 in10.0 miENE (60°)17.3 mph25.3 mphRainLight Rain
12:55 AM75.9 °F71.4 °F86 %29.88 in9.0 miENE (70°)19.6 mph0.01 inLight Drizzle
1:11 AM75.2 °F71.6 °F89 %29.88 in8.0 miENE (70°)15.0 mph32.2 mphMostly Cloudy
1:15 AM75.2 °F71.6 °F89 %29.88 in10.0 miENE (70°)17.3 mph23.0 mphMostly Cloudy
1:19 AM75.2 °F71.6 °F89 %29.88 in10.0 miEast (80°)16.1 mph23.0 mphMostly Cloudy
1:28 AM75.2 °F71.6 °F89 %29.88 in10.0 miEast (80°)18.4 mph26.5 mphMostly Cloudy
1:55 AM75.4 °F69.6 °F82 %29.88 in10.0 miEast (80°)17.3 mph0.02 inMostly Cloudy
2:55 AM74.8 °F70.7 °F87 %29.87 in10.0 miENE (70°)15.0 mphPartly Cloudy
3:08 AM75.2 °F71.6 °F89 %29.86 in10.0 miENE (70°)15.0 mphMostly Cloudy
3:10 AM75.2 °F71.6 °F89 %29.86 in10.0 miENE (60°)15.0 mphScattered Clouds
3:55 AM74.8 °F71.2 °F88 %29.86 in10.0 miENE (60°)13.8 mphPartly Cloudy
4:16 AM75.2 °F71.6 °F89 %29.87 in10.0 miENE (70°)18.4 mph24.2 mphLight Drizzle
4:18 AM75.2 °F71.6 °F89 %29.87 in10.0 miENE (70°)21.9 mph25.3 mphLight Drizzle
4:25 AM73.4 °F69.8 °F88 %29.87 in8.0 miENE (70°)16.1 mph25.3 mphLight Drizzle
4:27 AM73.4 °F69.8 °F88 %29.87 in6.0 miENE (70°)18.4 mphRainLight Rain
4:29 AM73.4 °F69.8 °F88 %29.87 in5.0 miNE (50°)18.4 mphRainLight Rain
4:47 AM73.4 °F69.8 °F88 %29.86 in5.0 miENE (70°)11.5 mphRainLight Rain
4:55 AM74.7 °F71.4 °F90 %29.86 in8.0 miENE (60°)15.0 mph20.7 mph0.02 inRainLight Rain
4:57 AM75.2 °F71.6 °F89 %29.86 in9.0 miENE (60°)16.1 mph20.7 mphRainLight Rain
4:59 AM75.2 °F71.6 °F89 %29.86 in10.0 miENE (60°)15.0 mph20.7 mphLight Drizzle
5:08 AM73.4 °F69.8 °F88 %29.86 in10.0 miNE (50°)20.7 mphMostly Cloudy
5:13 AM75.2 °F69.8 °F83 %29.86 in10.0 miNE (50°)20.7 mphMostly Cloudy
5:21 AM75.2 °F69.8 °F83 %29.87 in10.0 miENE (60°)18.4 mphMostly Cloudy
5:25 AM75.2 °F69.8 °F83 %29.86 in10.0 miENE (60°)19.6 mphMostly Cloudy
5:55 AM76.3 °F70.9 °F83 %29.86 in10.0 miENE (60°)17.3 mph0.00 inPartly Cloudy
6:55 AM76.3 °F71.4 °F85 %29.87 in10.0 miENE (60°)13.8 mphScattered Clouds
7:06 AM77.0 °F71.6 °F83 %29.87 in10.0 miENE (60°)16.1 mphMostly Cloudy
7:35 AM75.2 °F68.0 °F78 %29.89 in10.0 miNE (50°)19.6 mphMostly Cloudy
7:55 AM77.0 °F69.8 °F78 %29.89 in10.0 miENE (60°)18.4 mphScattered Clouds
8:09 AM77.0 °F69.8 °F78 %29.90 in10.0 miENE (60°)18.4 mphMostly Cloudy
8:38 AM77.0 °F69.8 °F78 %29.90 in10.0 miENE (60°)21.9 mphScattered Clouds
8:55 AM76.1 °F67.1 °F74 %29.90 in10.0 miNE (50°)19.6 mphPartly Cloudy
9:55 AM79.3 °F69.4 °F72 %29.90 in10.0 miNE (50°)20.7 mphScattered Clouds
9:57 AM80.6 °F71.6 °F74 %29.90 in10.0 miNE (50°)20.7 mphMostly Cloudy
10:33 AM80.6 °F71.6 °F74 %29.89 in10.0 miENE (60°)19.6 mphScattered Clouds
10:55 AM82.4 °F68.5 °F63 %29.88 in10.0 miNE (50°)23.0 mphScattered Clouds
10:57 AM82.4 °F73.4 °F74 %29.88 in10.0 miNE (50°)20.7 mphMostly Cloudy
11:15 AM82.4 °F73.4 °F74 %29.87 in10.0 miNE (50°)20.7 mph27.6 mphScattered Clouds
11:32 AM82.4 °F73.4 °F74 %29.87 in10.0 miNE (50°)20.7 mph26.5 mphMostly Cloudy
11:39 AM82.4 °F73.4 °F74 %29.87 in10.0 miENE (60°)20.7 mph26.5 mphMostly Cloudy
11:40 AM80.6 °F69.8 °F70 %29.86 in10.0 miENE (60°)19.6 mph26.5 mphMostly Cloudy
11:55 AM83.1 °F72.0 °F69 %29.86 in10.0 miNE (50°)19.6 mphMostly Cloudy
12:03 PM82.4 °F71.6 °F70 %29.85 in10.0 miNE (50°)20.7 mphOvercast
12:08 PM82.4 °F71.6 °F70 %29.85 in10.0 miNE (50°)21.9 mph27.6 mphMostly Cloudy
12:09 PM82.4 °F71.6 °F70 %29.85 in10.0 miNE (50°)20.7 mph27.6 mphMostly Cloudy
12:11 PM82.4 °F71.6 °F70 %29.85 in10.0 miENE (60°)20.7 mph27.6 mphMostly Cloudy
12:13 PM82.4 °F71.6 °F70 %29.85 in10.0 miNE (50°)20.7 mph27.6 mphMostly Cloudy
12:26 PM82.4 °F71.6 °F70 %29.85 in10.0 miENE (60°)19.6 mphMostly Cloudy
12:30 PM82.4 °F71.6 °F70 %29.85 in10.0 miNE (50°)21.9 mphMostly Cloudy
12:45 PM82.4 °F71.6 °F70 %29.84 in10.0 miNE (40°)19.6 mphMostly Cloudy
12:55 PM80.2 °F72.1 °F76 %29.84 in10.0 miNE (50°)21.9 mphMostly Cloudy
1:05 PM84.2 °F71.6 °F66 %29.83 in10.0 miNE (50°)19.6 mphMostly Cloudy
1:06 PM84.2 °F71.6 °F66 %29.83 in10.0 miNE (50°)18.4 mphMostly Cloudy
1:20 PM84.2 °F73.4 °F70 %29.83 in10.0 miNE (50°)18.4 mph26.5 mphMostly Cloudy
1:23 PM84.2 °F71.6 °F66 %29.83 in10.0 miNE (50°)19.6 mph26.5 mphMostly Cloudy
1:27 PM84.2 °F71.6 °F66 %29.83 in10.0 miNE (50°)19.6 mphMostly Cloudy
1:28 PM84.2 °F71.6 °F66 %29.83 in10.0 miNE (50°)18.4 mphMostly Cloudy
1:36 PM80.6 °F71.6 °F74 %29.82 in4.0 miENE (60°)16.1 mphRainLight Rain
1:39 PM80.6 °F73.4 °F79 %29.82 in2.5 miENE (60°)20.7 mphRainLight Rain
1:44 PM80.6 °F73.4 °F79 %29.82 in3.0 miENE (60°)17.3 mphRainLight Rain
1:49 PM80.6 °F71.6 °F74 %29.82 in8.0 miNE (50°)17.3 mphOvercast
1:55 PM78.1 °F73.6 °F86 %29.81 in10.0 miNE (50°)20.7 mph0.02 inMostly Cloudy
1:57 PM80.6 °F73.4 °F79 %29.81 in9.0 miENE (60°)24.2 mph27.6 mphRainLight Rain
2:10 PM82.4 °F71.6 °F70 %29.81 in10.0 miNE (50°)18.4 mphMostly Cloudy
2:18 PM82.4 °F73.4 °F74 %29.81 in10.0 miNE (50°)21.9 mphMostly Cloudy
2:19 PM82.4 °F73.4 °F74 %29.81 in10.0 miENE (60°)20.7 mphMostly Cloudy
2:26 PM82.4 °F73.4 °F74 %29.81 in10.0 miENE (60°)20.7 mphMostly Cloudy
2:42 PM80.6 °F71.6 °F74 %29.80 in10.0 miENE (60°)21.9 mphMostly Cloudy
2:46 PM80.6 °F71.6 °F74 %29.80 in10.0 miNE (50°)21.9 mph26.5 mphMostly Cloudy
2:55 PM80.2 °F70.3 °F72 %29.80 in10.0 miENE (60°)21.9 mph0.00 inScattered Clouds
3:55 PM82.4 °F71.6 °F70 %29.80 in10.0 miENE (60°)20.7 mphScattered Clouds
4:05 PM82.4 °F71.6 °F70 %29.81 in10.0 miENE (60°)18.4 mphMostly Cloudy
4:07 PM82.4 °F71.6 °F70 %29.81 in10.0 miENE (60°)19.6 mphScattered Clouds
4:08 PM82.4 °F71.6 °F70 %29.81 in10.0 miENE (60°)19.6 mph25.3 mphMostly Cloudy
4:33 PM80.6 °F71.6 °F74 %29.81 in10.0 miENE (60°)18.4 mph26.5 mphScattered Clouds
4:35 PM80.6 °F71.6 °F74 %29.81 in10.0 miENE (60°)18.4 mph26.5 mphMostly Cloudy
4:38 PM80.6 °F71.6 °F74 %29.81 in10.0 miENE (60°)19.6 mphScattered Clouds
4:42 PM80.6 °F71.6 °F74 %29.81 in10.0 miENE (70°)19.6 mphMostly Cloudy
4:43 PM80.6 °F71.6 °F74 %29.81 in10.0 miENE (60°)19.6 mphScattered Clouds
4:55 PM79.7 °F70.7 °F74 %29.81 in10.0 miENE (60°)18.4 mphMostly Cloudy
5:09 PM80.6 °F71.6 °F74 %29.81 in10.0 miENE (60°)18.4 mphMostly Cloudy
5:17 PM78.8 °F71.6 °F78 %29.81 in10.0 miENE (70°)18.4 mphScattered Clouds
5:27 PM78.8 °F71.6 °F78 %29.81 in10.0 miENE (70°)16.1 mph23.0 mphMostly Cloudy
5:32 PM77.0 °F69.8 °F78 %29.81 in10.0 miENE (70°)16.1 mph23.0 mphScattered Clouds
5:46 PM77.0 °F69.8 °F78 %29.81 in10.0 miENE (60°)16.1 mphMostly Cloudy
5:55 PM78.1 °F71.1 °F79 %29.81 in10.0 miENE (60°)18.4 mph25.3 mphMostly Cloudy
6:25 PM78.8 °F71.6 °F78 %29.81 in10.0 miENE (70°)13.8 mphMostly Cloudy
6:28 PM77.0 °F71.6 °F83 %29.81 in10.0 miENE (70°)13.8 mphMostly Cloudy
6:31 PM77.0 °F71.6 °F83 %29.81 in10.0 miENE (70°)15.0 mphRainLight Rain
6:43 PM75.2 °F69.8 °F83 %29.81 in10.0 miENE (70°)16.1 mphMostly Cloudy
6:46 PM77.0 °F69.8 °F78 %29.81 in10.0 miENE (70°)18.4 mphMostly Cloudy
6:49 PM77.0 °F71.6 °F83 %29.81 in10.0 miENE (70°)18.4 mphMostly Cloudy
6:55 PM77.7 °F71.8 °F82 %29.81 in10.0 miENE (70°)18.4 mph0.00 inMostly Cloudy
7:24 PM77.0 °F69.8 °F78 %29.82 in10.0 miENE (60°)13.8 mphScattered Clouds
7:31 PM75.2 °F69.8 °F83 %29.82 in10.0 miENE (70°)15.0 mphMostly Cloudy
7:37 PM73.4 °F68.0 °F83 %29.82 in10.0 miENE (60°)16.1 mphScattered Clouds
7:49 PM75.2 °F69.8 °F83 %29.82 in10.0 miENE (60°)16.1 mphMostly Cloudy
7:53 PM75.2 °F68.0 °F78 %29.82 in10.0 miENE (60°)16.1 mphScattered Clouds
7:55 PM75.4 °F69.1 °F81 %29.82 in10.0 miENE (60°)16.1 mphScattered Clouds
8:55 PM77.5 °F71.1 °F80 %29.83 in10.0 miENE (70°)13.8 mphPartly Cloudy
9:42 PM78.8 °F71.6 °F78 %29.83 in10.0 miENE (70°)15.0 mphMostly Cloudy
9:55 PM78.1 °F70.7 °F78 %29.83 in10.0 miENE (70°)16.1 mphMostly Cloudy
9:56 PM78.8 °F69.8 °F74 %29.83 in10.0 miENE (70°)15.0 mphMostly Cloudy
10:13 PM78.8 °F69.8 °F74 %29.83 in10.0 miEast (80°)16.1 mphMostly Cloudy
10:55 PM78.3 °F70.2 °F76 %29.83 in10.0 miEast (80°)15.0 mphScattered Clouds
11:55 PM77.7 °F70.7 °F79 %29.83 in10.0 miEast (80°)12.7 mphPartly Cloudy
Hourly data recorded from PGUA, located miles away from Mangilao, Guam







STORIES FROM OUR PARTNERS